Content
SEND FEEDBACK

Daily
Averages
Monthly
Summary
Qatar

DOHA, QATAR


Home > Middle East > Qatar
Elevation: 33 feet     Latitude: 25 15N     Longitude: 051 34E

WEATHER
 
SELECT A DAY
Number of Records: 194,927;   Date Range: 7/1/96 - 8/12/14
 
SHARE

PRINT THIS DATA

[ ← Previous Day ]
WEATHER ALMANAC - JANUARY 23, 2013
[ Next Day → ]
[ °C ]   °F
Weather ElementAverageHighLow
Temperature66.9 °F75.2 °F (1:00 pm)60.8 °F (4:00 am)
Dewpoint56.5 °F61 °F (9:00 pm)50 °F (12:00 pm)
Humidity70.5 %88 % (4:00 am)36 % (3:00 pm)
Barometer30.17 in30.25 in (9:00 am)30.12 in (2:30 pm)
Wind Speed4.5 mph8.1 mph (2:00 am)
Weather ElementAverage
Visibility4.5 mi
Wind DirectionSSE (146.9 °)

Weather ElementTotal
Precipitation---
Cooling Degree Days3 (Base 65)
Growing Degree Days18 (Base 50)
Averaged from 49 records on January 23, 2013
WEATHER CONDITIONS BREAKOUT
WIND DIRECTION BREAKOUT
WEATHER BY HOUR - JANUARY 23, 2013
[ °C ]   °F
Local TimeTemperatureDewpointHumidityBarometerVisibilityWind DirectionWind SpeedGust SpeedPrecipitationEventsConditions
12:30 AM64.4 °F57.2 °F77 %30.18 in4.3 miNW (320°)5.8 mph
1:00 AM64.4 °F57.2 °F77 %30.15 in4.3 miNW (310°)5.8 mph
1:30 AM62.6 °F57.2 °F82 %30.15 in4.3 miNW (310°)6.9 mph
2:00 AM62.6 °F57.2 °F82 %30.15 in3.7 miNW (320°)8.1 mph
2:30 AM62.6 °F57.2 °F82 %30.15 in3.7 miNW (320°)6.9 mph
3:00 AM62.6 °F57.2 °F82 %30.15 in3.7 miNW (320°)8.1 mph
3:00 AM62.0 °F57.0 °F79 %30.17 in4.0 miNW (320°)8.1 mphHaze
3:30 AM62.6 °F57.2 °F82 %30.15 in3.7 miNW (320°)4.6 mph
4:00 AM60.8 °F57.2 °F88 %30.15 in3.7 miNW (320°)4.6 mph
4:30 AM60.8 °F57.2 °F88 %30.15 in3.7 miWNW (300°)4.6 mph
5:00 AM60.8 °F57.2 °F88 %30.15 in3.7 miWNW (300°)4.6 mph
5:30 AM60.8 °F55.4 °F82 %30.18 in3.7 miWNW (300°)5.8 mph
6:00 AM60.8 °F55.4 °F82 %30.18 in3.7 miWNW (300°)5.8 mph
6:30 AM60.8 °F55.4 °F82 %30.18 in3.7 miWSW (250°)3.5 mph
7:00 AM60.8 °F55.4 °F82 %30.21 in4.3 miWSW (240°)3.5 mph
7:30 AM62.6 °F57.2 °F82 %30.21 in4.3 miVariable2.3 mph
8:00 AM64.4 °F57.2 °F77 %30.21 in5.0 miCalm
8:30 AM66.2 °F57.2 °F73 %30.24 in5.0 miWNW (290°)3.5 mph
9:00 AM68.0 °F55.4 °F64 %30.24 in5.0 miNNW (340°)4.6 mph
9:00 AM67.0 °F56.0 °F59 %30.25 in5.0 miNNW (340°)4.6 mphSmoke
9:30 AM69.8 °F55.4 °F60 %30.24 in5.6 miVariable2.3 mph
10:00 AM71.6 °F55.4 °F57 %30.24 inVariable4.6 mphClear
11:00 AM73.4 °F55.4 °F53 %30.21 inVariable2.3 mphClear
11:30 AM73.4 °F51.8 °F47 %30.18 inNNE (30°)3.5 mphClear
12:00 PM73.4 °F50.0 °F44 %30.18 inNorth (10°)5.8 mphClear
12:30 PM73.4 °F53.6 °F50 %30.15 inEast (100°)8.1 mphClear
1:00 PM75.2 °F53.6 °F47 %30.15 inEast (90°)6.9 mphClear
1:30 PM73.4 °F53.6 °F50 %30.15 inEast (100°)8.1 mphClear
2:00 PM73.4 °F51.8 °F47 %30.15 inESE (110°)6.9 mphClear
2:30 PM75.2 °F51.8 °F44 %30.12 inEast (90°)5.8 mphClear
3:00 PM75.2 °F53.6 °F47 %30.12 inEast (90°)4.6 mphClear
3:00 PM75.0 °F53.0 °F36 %30.15 in9.0 miEast (90°)4.6 mph
3:30 PM73.4 °F55.4 °F53 %30.12 inEast (100°)5.8 mphClear
4:00 PM71.6 °F57.2 °F60 %30.15 inESE (120°)6.9 mphClear
4:30 PM71.6 °F57.2 °F60 %30.15 inSE (130°)3.5 mphClear
5:00 PM69.8 °F57.2 °F64 %30.15 inEast (100°)5.8 mphClear
6:00 PM68.0 °F59.0 °F73 %30.18 inEast (80°)4.6 mphClear
6:30 PM66.2 °F60.8 °F83 %30.18 inEast (80°)4.6 mphClear
7:00 PM66.2 °F60.8 °F83 %30.18 inENE (70°)3.5 mphClear
7:30 PM66.2 °F59.0 °F78 %30.18 inVariable2.3 mphClear
8:00 PM66.2 °F59.0 °F78 %30.18 inVariable2.3 mphClear
8:30 PM66.2 °F60.8 °F83 %30.18 inVariable2.3 mphClear
9:00 PM64.4 °F60.8 °F88 %30.18 inVariable1.2 mphClear
9:00 PM65.0 °F61.0 °F81 %30.19 in6.0 mi°1.2 mph
9:30 PM64.4 °F60.8 °F88 %30.18 inVariable1.2 mphClear
10:00 PM64.4 °F59.0 °F83 %30.18 inVariable1.2 mphClear
10:30 PM64.4 °F53.6 °F68 %30.15 inSE (140°)3.5 mphClear
11:00 PM64.4 °F57.2 °F77 %30.15 inVariable2.3 mphClear
11:30 PM64.4 °F59.0 °F83 %30.15 inVariable1.2 mphClear
Hourly data recorded from OTBD, located miles away from Doha, Qatar







STORIES FROM OUR PARTNERS